User: anonymous
Location: Unspecified
(0.0000°N, 0.0000°E)
Time: 06:56:22
(UTC+00:00)
Language:

GEOEYE 1 - Orbit

View from above orbital plane
View from above orbital plane
View from above satellite
View from above satellite

Ground track
Ground track

The orbit data is extracted from the following two-line orbital elements,

1 33331U 08042A   14244.78564942  .00000321  00000-0  70175-4 0  6253
2 33331 098.1333 318.7506 0008531 221.1148 138.9389 14.64155644319923
Epoch (UTC): 01 September 2014 18:51:20
Eccentricity: 0.0008531
inclination: 98.1333°
perigee height: 674 km
apogee height: 686 km
right ascension of ascending node: 318.7506°
argument of perigee: 221.1148°
revolutions per day: 14.64155644
mean anomaly at epoch: 138.9389°
orbit number at epoch: 31992

The dashed part of the orbit path shows where the satellite is in the earth's shadow,  

DLR